SLM428 SMJP-SYCJ

Flight info

Callsign SLM428
Flight time 0h 40m
Altitude 28000
Route GIGLO DCT KETIL DCT GEBON DCT SISEX
Aircraft B738/M-SDE2E3FGHIRWXY/LB1

Departure

Time 2026-04-25 11:55
Airport Johan Adolf Pengel International Airport (SMJP)

Arrival

Time 2026-04-25 12:35
Airport Cheddi Jagan International Airport (SYCJ)
Time Latitude Longitude Altitude Speed Heading
2026-04-25 11:34 5.45587 -55.19748 60 ft 0 kts 83°
2026-04-25 11:52 5.45587 -55.19745 60 ft 1 kts 84°
2026-04-25 11:52 5.45586 -55.19734 57 ft 3 kts 99°
2026-04-25 11:52 5.45553 -55.19718 59 ft 7 kts 191°
2026-04-25 11:52 5.45508 -55.19729 60 ft 7 kts 188°
2026-04-25 11:53 5.45460 -55.19752 60 ft 9 kts 236°
2026-04-25 11:53 5.45447 -55.19828 62 ft 14 kts 266°
2026-04-25 11:53 5.45445 -55.19952 59 ft 21 kts 271°
2026-04-25 11:53 5.45446 -55.20112 60 ft 23 kts 270°
2026-04-25 11:54 5.45445 -55.20269 59 ft 19 kts 269°
2026-04-25 11:54 5.45374 -55.20354 55 ft 18 kts 189°
2026-04-25 11:54 5.45278 -55.20123 57 ft 48 kts 90°
2026-04-25 11:55 5.45282 -55.19545 65 ft 115 kts 89°
2026-04-25 11:55 5.45288 -55.18558 161 ft 159 kts 91°
2026-04-25 11:55 5.45309 -55.17400 701 ft 173 kts 89°
2026-04-25 11:55 5.45388 -55.16190 1368 ft 174 kts 73°
2026-04-25 11:56 5.46154 -55.15227 1914 ft 193 kts 32°
2026-04-25 11:56 5.47502 -55.14866 2454 ft 209 kts
2026-04-25 11:56 5.48969 -55.15202 2854 ft 232 kts 335°
2026-04-25 11:56 5.50331 -55.16306 2939 ft 272 kts 310°
2026-04-25 11:57 5.51385 -55.17896 3713 ft 272 kts 306°
2026-04-25 11:57 5.52437 -55.19476 4391 ft 280 kts 308°
2026-04-25 11:57 5.53591 -55.21079 5078 ft 285 kts 309°
2026-04-25 11:57 5.54772 -55.22687 5819 ft 287 kts 309°
2026-04-25 11:58 5.55965 -55.24311 6545 ft 291 kts 308°
2026-04-25 11:58 5.57170 -55.25961 7235 ft 295 kts 308°
2026-04-25 11:58 5.58390 -55.27638 7948 ft 300 kts 308°
2026-04-25 11:58 5.59627 -55.29344 8706 ft 303 kts 308°
2026-04-25 11:59 5.60876 -55.31071 9470 ft 308 kts 308°
2026-04-25 11:59 5.62146 -55.32828 10199 ft 313 kts 307°
2026-04-25 11:59 5.63470 -55.34662 10480 ft 336 kts 307°
2026-04-25 12:00 5.66296 -55.38580 11504 ft 356 kts 307°
2026-04-25 12:00 5.67768 -55.40624 12235 ft 359 kts 307°
2026-04-25 12:00 5.70720 -55.44727 13693 ft 366 kts 307°
2026-04-25 12:01 5.72204 -55.46789 14334 ft 370 kts 307°
2026-04-25 12:01 5.73719 -55.48894 15013 ft 374 kts 307°
2026-04-25 12:01 5.75249 -55.51021 15681 ft 378 kts 307°
2026-04-25 12:01 5.76799 -55.53174 16335 ft 382 kts 307°
2026-04-25 12:02 5.79958 -55.57565 17587 ft 392 kts 306°
2026-04-25 12:02 5.81560 -55.59792 18241 ft 395 kts 306°
2026-04-25 12:02 5.83177 -55.62040 18809 ft 398 kts 306°
2026-04-25 12:03 5.84802 -55.64299 19407 ft 400 kts 306°
2026-04-25 12:03 5.86415 -55.66542 20002 ft 401 kts 306°
2026-04-25 12:03 5.87925 -55.68908 20572 ft 404 kts 297°
2026-04-25 12:03 5.88997 -55.71526 21140 ft 407 kts 287°
2026-04-25 12:04 5.89617 -55.74310 21694 ft 409 kts 278°
2026-04-25 12:04 5.90021 -55.77153 22245 ft 412 kts 277°
2026-04-25 12:04 5.90391 -55.80009 22753 ft 415 kts 277°
2026-04-25 12:04 5.90760 -55.82888 23318 ft 416 kts 277°
2026-04-25 12:05 5.91136 -55.85784 23761 ft 418 kts 277°
2026-04-25 12:05 5.91519 -55.88657 23945 ft 414 kts 277°
2026-04-25 12:05 5.91911 -55.91544 23982 ft 419 kts 278°
2026-04-25 12:05 5.92311 -55.94454 23979 ft 420 kts 278°
2026-04-25 12:06 5.92708 -55.97318 23975 ft 420 kts 278°
2026-04-25 12:06 5.93114 -56.00239 23984 ft 422 kts 278°
2026-04-25 12:06 5.93522 -56.03168 23983 ft 424 kts 278°
2026-04-25 12:06 5.93930 -56.06102 23993 ft 424 kts 278°
2026-04-25 12:07 5.94338 -56.09035 23987 ft 424 kts 278°
2026-04-25 12:07 5.94747 -56.11973 23985 ft 422 kts 278°
2026-04-25 12:07 5.95152 -56.14889 23978 ft 421 kts 278°
2026-04-25 12:07 5.95551 -56.17763 23980 ft 420 kts 278°
2026-04-25 12:08 5.95953 -56.20663 23982 ft 419 kts 278°
2026-04-25 12:08 5.96355 -56.23559 23989 ft 418 kts 278°
2026-04-25 12:08 5.96756 -56.26452 23988 ft 418 kts 278°
2026-04-25 12:08 5.97158 -56.29351 23990 ft 418 kts 278°
2026-04-25 12:09 5.97559 -56.32243 23984 ft 418 kts 277°
2026-04-25 12:09 5.97960 -56.35137 23988 ft 418 kts 277°
2026-04-25 12:09 5.98361 -56.38037 23985 ft 419 kts 277°
2026-04-25 12:09 5.98763 -56.40939 23990 ft 419 kts 277°
2026-04-25 12:10 5.99165 -56.43849 23984 ft 420 kts 277°
2026-04-25 12:10 5.99567 -56.46755 23987 ft 420 kts 277°
2026-04-25 12:10 5.99969 -56.49665 23984 ft 420 kts 277°
2026-04-25 12:10 6.00369 -56.52563 23983 ft 420 kts 277°
2026-04-25 12:11 6.00771 -56.55467 23979 ft 420 kts 277°
2026-04-25 12:11 6.01172 -56.58373 23986 ft 420 kts 277°
2026-04-25 12:11 6.01572 -56.61277 23982 ft 419 kts 277°
2026-04-25 12:11 6.01968 -56.64143 23982 ft 419 kts 277°
2026-04-25 12:12 6.02367 -56.67039 23976 ft 418 kts 277°
2026-04-25 12:12 6.02637 -56.68997 23976 ft 418 kts 277°
2026-04-25 12:12 6.03165 -56.72826 23980 ft 418 kts 277°
2026-04-25 12:12 6.03563 -56.75720 23982 ft 418 kts 277°
2026-04-25 12:13 6.03961 -56.78612 23982 ft 418 kts 277°
2026-04-25 12:13 6.04359 -56.81505 23984 ft 418 kts 277°
2026-04-25 12:13 6.04758 -56.84403 23983 ft 418 kts 277°
2026-04-25 12:13 6.05157 -56.87304 23980 ft 418 kts 277°
2026-04-25 12:14 6.05556 -56.90208 23984 ft 419 kts 277°
2026-04-25 12:14 6.05954 -56.93109 23986 ft 419 kts 277°
2026-04-25 12:14 6.06353 -56.96013 23986 ft 420 kts 277°
2026-04-25 12:14 6.06756 -56.98919 23984 ft 420 kts 278°
2026-04-25 12:15 6.07385 -57.01786 23980 ft 420 kts 287°
2026-04-25 12:15 6.08295 -57.04541 23877 ft 411 kts 288°
2026-04-25 12:15 6.09221 -57.07202 23542 ft 406 kts 289°
2026-04-25 12:15 6.10173 -57.09907 23079 ft 404 kts 289°
2026-04-25 12:16 6.11096 -57.12555 22629 ft 400 kts 289°
2026-04-25 12:16 6.12003 -57.15187 22196 ft 397 kts 289°
2026-04-25 12:16 6.12886 -57.17774 21768 ft 395 kts 288°
2026-04-25 12:16 6.13769 -57.20380 21335 ft 392 kts 288°
2026-04-25 12:17 6.14645 -57.22973 20905 ft 390 kts 288°
2026-04-25 12:17 6.15509 -57.25540 20484 ft 388 kts 288°
2026-04-25 12:17 6.16373 -57.28108 20045 ft 387 kts 288°
2026-04-25 12:17 6.17233 -57.30665 19610 ft 386 kts 288°
2026-04-25 12:18 6.18094 -57.33223 19187 ft 385 kts 288°
2026-04-25 12:18 6.18951 -57.35772 18756 ft 384 kts 288°
2026-04-25 12:18 6.19804 -57.38309 18327 ft 383 kts 289°
2026-04-25 12:18 6.20657 -57.40846 17854 ft 382 kts 289°
2026-04-25 12:19 6.22064 -57.45030 17134 ft 378 kts 289°
2026-04-25 12:19 6.23185 -57.48365 16579 ft 375 kts 289°
2026-04-25 12:19 6.24016 -57.50838 16163 ft 372 kts 289°
2026-04-25 12:20 6.24842 -57.53296 15757 ft 370 kts 289°
2026-04-25 12:20 6.25663 -57.55742 15355 ft 368 kts 289°
2026-04-25 12:20 6.26481 -57.58176 14944 ft 367 kts 289°
2026-04-25 12:20 6.27295 -57.60601 14533 ft 366 kts 289°
2026-04-25 12:21 6.28098 -57.62993 14130 ft 365 kts 289°
2026-04-25 12:21 6.28907 -57.65403 13704 ft 364 kts 289°
2026-04-25 12:21 6.29716 -57.67811 13274 ft 362 kts 289°
2026-04-25 12:21 6.30516 -57.70197 12857 ft 359 kts 289°
2026-04-25 12:22 6.31312 -57.72570 12446 ft 357 kts 289°
2026-04-25 12:22 6.32109 -57.74945 12066 ft 355 kts 289°
2026-04-25 12:22 6.32896 -57.77291 11649 ft 354 kts 289°
2026-04-25 12:22 6.33687 -57.79632 11253 ft 352 kts 289°
2026-04-25 12:23 6.34485 -57.81948 10864 ft 350 kts 289°
2026-04-25 12:23 6.35271 -57.84221 10491 ft 347 kts 289°
2026-04-25 12:23 6.36054 -57.86486 10334 ft 337 kts 289°
2026-04-25 12:23 6.36813 -57.88683 10175 ft 328 kts 289°
2026-04-25 12:24 6.37553 -57.90827 10031 ft 319 kts 289°
2026-04-25 12:24 6.38271 -57.92909 9907 ft 310 kts 289°
2026-04-25 12:24 6.38965 -57.94926 9581 ft 308 kts 289°
2026-04-25 12:24 6.39669 -57.96967 9204 ft 309 kts 289°
2026-04-25 12:25 6.40373 -57.99014 8858 ft 308 kts 289°
2026-04-25 12:25 6.41071 -58.01042 8541 ft 307 kts 289°
2026-04-25 12:25 6.41767 -58.03062 8229 ft 305 kts 289°
2026-04-25 12:25 6.42447 -58.05045 7934 ft 303 kts 288°
2026-04-25 12:26 6.42678 -58.07135 7612 ft 301 kts 258°
2026-04-25 12:26 6.41822 -58.08994 7335 ft 293 kts 225°
2026-04-25 12:26 6.40217 -58.10186 7104 ft 285 kts 207°
2026-04-25 12:26 6.38533 -58.11258 6776 ft 287 kts 213°
2026-04-25 12:27 6.36972 -58.12522 6493 ft 288 kts 220°
2026-04-25 12:27 6.35580 -58.13973 6193 ft 289 kts 227°
2026-04-25 12:27 6.34368 -58.15588 5880 ft 289 kts 234°
2026-04-25 12:27 6.33354 -58.17307 5586 ft 289 kts 240°
2026-04-25 12:28 6.32517 -58.19146 5286 ft 289 kts 247°
2026-04-25 12:28 6.31879 -58.21063 4990 ft 289 kts 253°
2026-04-25 12:28 6.31452 -58.23030 4702 ft 288 kts 260°
2026-04-25 12:28 6.31240 -58.25028 4398 ft 287 kts 266°
2026-04-25 12:29 6.31247 -58.27029 4189 ft 283 kts 273°
2026-04-25 12:29 6.31459 -58.28929 4160 ft 264 kts 279°
2026-04-25 12:29 6.31832 -58.30636 4042 ft 243 kts 285°
2026-04-25 12:29 6.32334 -58.32197 3912 ft 226 kts 291°
2026-04-25 12:30 6.32912 -58.33601 3804 ft 210 kts 295°
2026-04-25 12:30 6.33537 -58.34878 3684 ft 196 kts 299°
2026-04-25 12:30 6.34209 -58.36046 3483 ft 191 kts 304°
2026-04-25 12:30 6.34987 -58.37099 3337 ft 185 kts 320°
2026-04-25 12:31 6.36104 -58.37648 3232 ft 179 kts 354°
2026-04-25 12:31 6.37272 -58.37393 3082 ft 172 kts 38°
2026-04-25 12:31 6.38247 -58.36659 2837 ft 175 kts 41°
2026-04-25 12:31 6.39174 -58.35919 2639 ft 170 kts 44°
2026-04-25 12:32 6.40035 -58.35125 2408 ft 166 kts 48°
2026-04-25 12:32 6.40852 -58.34323 2191 ft 163 kts 47°
2026-04-25 12:32 6.41664 -58.33520 1996 ft 164 kts 49°
2026-04-25 12:32 6.42476 -58.32716 1783 ft 162 kts 48°
2026-04-25 12:33 6.43278 -58.31923 1617 ft 160 kts 49°
2026-04-25 12:33 6.44052 -58.31158 1355 ft 150 kts 48°
2026-04-25 12:33 6.44794 -58.30422 1177 ft 151 kts 49°
2026-04-25 12:33 6.45545 -58.29688 1009 ft 152 kts 48°
2026-04-25 12:34 6.46305 -58.28935 833 ft 154 kts 46°
2026-04-25 12:34 6.47070 -58.28177 623 ft 154 kts 46°
2026-04-25 12:34 6.47830 -58.27426 417 ft 152 kts 45°
2026-04-25 12:34 6.48073 -58.27185 361 ft 151 kts 46°
2026-04-25 12:35 6.49299 -58.25964 103 ft 135 kts 46°
2026-04-25 12:35 6.49880 -58.25384 104 ft 100 kts 44°
2026-04-25 12:35 6.50163 -58.25106 100 ft 35 kts 44°
2026-04-25 12:35 6.50249 -58.25038 101 ft 4 kts
2026-04-25 12:36 6.50273 -58.25048 101 ft 4 kts 322°
2026-04-25 12:36 6.50297 -58.25070 100 ft 6 kts 317°
2026-04-25 12:36 6.50329 -58.25103 99 ft 8 kts 313°
2026-04-25 12:36 6.50359 -58.25152 99 ft 9 kts 309°
2026-04-25 12:37 6.50385 -58.25180 97 ft 1 kts 314°
2026-04-25 12:37 6.50386 -58.25181 97 ft 0 kts 315°